Luverne, MN

5:45 AM CST on February 20, 2017 (GMT -0600)
Luverne

Weather History for KLYV - October, 2011

Change the Weather History Date:

Monday, October 17, 2011

  Actual Average (KPQN) Record (KPQN)
Temperature  
Mean Temperature 42 °F -  
Max Temperature 55 °F 56 °F 69 °F (2000)
Min Temperature 30 °F 35 °F 24 °F (2002)
Degree Days  
Heating Degree Days 22    
Moisture  
Dew Point 28 °F    
Average Humidity 62    
Maximum Humidity 93    
Minimum Humidity 29    
Precipitation  
Precipitation 0.00 in - - ()
Sea Level Pressure  
Sea Level Pressure 29.99 in    
Wind  
Wind Speed 6 mph (WNW)    
Max Wind Speed 17 mph    
Max Gust Speed 25 mph    
Visibility 10 miles    
Events      
Averages and records for this station are not official NWS values.
T = Trace of Precipitation, MM = Missing Value Source: NWS Daily Summary

Daily Weather History Graph

Daily Weather History Graph

Search for Another Location

Airport or City:

Trip Planner

Search our weather history database for the weather conditions in past years. The results will help you decide how hot, cold, wet, or windy it might be!

Date:

Astronomy

Oct. 17, 2011 Rise Set
Actual Time 7:41 AM CDT 6:38 PM CDT
Civil Twilight 7:12 AM CDT 7:07 PM CDT
Nautical Twilight 6:38 AM CDT 7:40 PM CDT
Astronomical Twilight 6:05 AM CDT 8:13 PM CDT
Moon 10:12 PM CDT (10/17) 12:56 PM CDT (10/17)
Length of Visible Light 11h 55m
Length of Day
10h 57m
Waning Gibbous, 74% of the Moon is Illuminated
Oct 17
Waning Gibbous
Oct 19
Last Quarter
Oct 26
New
Nov 2
First Quarter
Nov 10
Full

Hourly Weather History & Observations

Time (CDT) Temp. Windchill Dew Point Humidity Pressure Visibility Wind Dir Wind Speed Gust Speed Precip Events Conditions
12:15 AM 33.8 °F 28.6 °F 28.4 °F 81% 30.01 in 10.0 mi West 5.8 mph - N/A   Clear
12:34 AM 33.8 °F - 28.4 °F 81% 30.01 in 10.0 mi Calm Calm - N/A   Clear
12:55 AM 33.8 °F 28.6 °F 28.4 °F 81% 30.01 in 10.0 mi WNW 5.8 mph - N/A   Clear
1:15 AM 33.8 °F 29.6 °F 28.4 °F 81% 30.01 in 10.0 mi WNW 4.6 mph - N/A   Clear
1:34 AM 33.8 °F 28.6 °F 28.4 °F 81% 30.00 in 10.0 mi NW 5.8 mph - N/A   Clear
2:15 AM 33.8 °F 30.8 °F 28.4 °F 81% 29.99 in 10.0 mi NNW 3.5 mph - N/A   Clear
2:34 AM 32.0 °F 28.7 °F 28.4 °F 87% 30.00 in 10.0 mi WNW 3.5 mph - N/A   Clear
2:55 AM 32.0 °F 28.7 °F 28.4 °F 87% 30.00 in 10.0 mi NW 3.5 mph - N/A   Clear
3:14 AM 32.0 °F 27.5 °F 28.4 °F 87% 30.00 in 10.0 mi WNW 4.6 mph - N/A   Clear
3:35 AM 32.0 °F 27.5 °F 26.6 °F 80% 30.00 in 10.0 mi West 4.6 mph - N/A   Clear
3:55 AM 32.0 °F 27.5 °F 28.4 °F 87% 29.99 in 10.0 mi NW 4.6 mph - N/A   Clear
4:15 AM 32.0 °F 26.4 °F 28.4 °F 87% 29.99 in 10.0 mi NW 5.8 mph - N/A   Clear
4:35 AM 32.0 °F 27.5 °F 28.4 °F 87% 29.99 in 10.0 mi NW 4.6 mph - N/A   Clear
4:55 AM 32.0 °F - 28.4 °F 87% 29.99 in 10.0 mi Calm Calm - N/A   Clear
5:14 AM 32.0 °F - 28.4 °F 87% 29.98 in 10.0 mi Calm Calm - N/A   Clear
5:35 AM 32.0 °F - 28.4 °F 87% 29.98 in 10.0 mi Calm Calm - N/A   Clear
5:55 AM 32.0 °F 28.7 °F 28.4 °F 87% 29.98 in 10.0 mi SSW 3.5 mph - N/A   Clear
6:14 AM 30.2 °F 26.7 °F 28.4 °F 93% 29.99 in 10.0 mi South 3.5 mph - N/A   Clear
6:34 AM 30.2 °F 26.7 °F 28.4 °F 93% 29.99 in 10.0 mi SW 3.5 mph - N/A   Clear
6:55 AM 32.0 °F - 30.2 °F 93% 29.99 in 10.0 mi Calm Calm - N/A   Clear
7:14 AM 33.8 °F - 30.2 °F 87% 29.99 in 10.0 mi Calm Calm - N/A   Clear
7:35 AM 35.6 °F - 32.0 °F 87% 29.99 in 10.0 mi Calm Calm - N/A   Clear
7:55 AM 35.6 °F - 32.0 °F 87% 29.99 in 10.0 mi Calm Calm - N/A   Clear
8:14 AM 37.4 °F - 32.0 °F 81% 29.99 in 10.0 mi Calm Calm - N/A   Clear
8:35 AM 37.4 °F 34.9 °F 32.0 °F 81% 29.99 in 10.0 mi West 3.5 mph - N/A   Clear
9:14 AM 41.0 °F 37.1 °F 32.0 °F 70% 30.01 in 10.0 mi WNW 5.8 mph - N/A   Clear
9:35 AM 42.8 °F 38.6 °F 32.0 °F 66% 30.01 in 10.0 mi West 6.9 mph - N/A   Clear
9:55 AM 42.8 °F 37.5 °F 32.0 °F 66% 30.01 in 10.0 mi WNW 9.2 mph - N/A   Clear
10:14 AM 44.6 °F 41.4 °F 32.0 °F 61% 30.01 in 10.0 mi WNW 5.8 mph - N/A   Clear
10:35 AM 46.4 °F 41.9 °F 33.8 °F 62% 30.02 in 10.0 mi WNW 9.2 mph - N/A   Clear
10:55 AM 46.4 °F 41.9 °F 32.0 °F 57% 30.01 in 10.0 mi WNW 9.2 mph - N/A   Clear
11:14 AM 48.2 °F - 32.0 °F 54% 30.02 in 10.0 mi WNW 9.2 mph - N/A   Clear
11:35 AM 50.0 °F - 32.0 °F 50% 30.02 in 10.0 mi WNW 11.5 mph - N/A   Clear
11:55 AM 50.0 °F - 30.2 °F 47% 30.01 in 10.0 mi WNW 12.7 mph 17.3 mph N/A   Clear
12:14 PM 50.0 °F - 30.2 °F 47% 30.01 in 10.0 mi WNW 12.7 mph 18.4 mph N/A   Clear
12:35 PM 51.8 °F - 30.2 °F 44% 30.01 in 10.0 mi WNW 13.8 mph - N/A   Clear
12:54 PM 53.6 °F - 23.0 °F 30% 30.01 in 10.0 mi NW 17.3 mph 25.3 mph N/A   Clear
1:15 PM 53.6 °F - 23.0 °F 30% 29.99 in 10.0 mi NNW 13.8 mph 20.7 mph N/A   Clear
1:55 PM 53.6 °F - 23.0 °F 30% 29.99 in 10.0 mi NW 12.7 mph 20.7 mph N/A   Clear
2:15 PM 55.4 °F - 23.0 °F 29% 29.98 in 10.0 mi NNW 11.5 mph 20.7 mph N/A   Clear
2:34 PM 55.4 °F - 23.0 °F 29% 29.98 in 10.0 mi NW 16.1 mph 23.0 mph N/A   Clear
2:55 PM 53.6 °F - 23.0 °F 30% 29.97 in 10.0 mi NNW 17.3 mph 23.0 mph N/A   Clear
3:15 PM 53.6 °F - 23.0 °F 30% 29.97 in 10.0 mi NNW 12.7 mph 21.9 mph N/A   Clear
3:34 PM 55.4 °F - 23.0 °F 29% 29.97 in 10.0 mi NNW 17.3 mph 24.2 mph N/A   Clear
3:55 PM 53.6 °F - 23.0 °F 30% 29.97 in 10.0 mi NNW 12.7 mph 21.9 mph N/A   Clear
4:14 PM 53.6 °F - 23.0 °F 30% 29.97 in 10.0 mi NW 17.3 mph 24.2 mph N/A   Clear
4:34 PM 53.6 °F - 26.6 °F 35% 29.97 in 10.0 mi NW 13.8 mph 19.6 mph N/A   Clear
4:55 PM 53.6 °F - 24.8 °F 33% 29.97 in 10.0 mi NW 12.7 mph 19.6 mph N/A   Clear
5:15 PM 53.6 °F - 23.0 °F 30% 29.97 in 10.0 mi NW 15.0 mph 20.7 mph N/A   Clear
5:34 PM 53.6 °F - 26.6 °F 35% 29.97 in 10.0 mi WNW 13.8 mph - N/A   Clear
5:55 PM 53.6 °F - 24.8 °F 33% 29.96 in 10.0 mi WNW 10.4 mph - N/A   Clear
6:14 PM 51.8 °F - 26.6 °F 38% 29.96 in 10.0 mi WNW 10.4 mph - N/A   Clear
6:35 PM 50.0 °F - 26.6 °F 40% 29.96 in 10.0 mi WNW 9.2 mph - N/A   Clear
6:55 PM 50.0 °F - 26.6 °F 40% 29.96 in 10.0 mi West 11.5 mph - N/A   Clear
7:14 PM 46.4 °F 41.5 °F 28.4 °F 50% 29.96 in 10.0 mi WNW 10.4 mph - N/A   Clear
7:35 PM 46.4 °F 41.9 °F 28.4 °F 50% 29.97 in 10.0 mi West 9.2 mph - N/A   Clear
8:14 PM 46.4 °F 42.9 °F 28.4 °F 50% 29.97 in 10.0 mi West 6.9 mph - N/A   Clear
8:35 PM 44.6 °F 40.7 °F 28.4 °F 53% 29.97 in 10.0 mi West 6.9 mph - N/A   Clear
8:55 PM 46.4 °F 41.5 °F 28.4 °F 50% 29.97 in 10.0 mi West 10.4 mph - N/A   Clear
9:14 PM 42.8 °F 37.5 °F 28.4 °F 57% 29.97 in 10.0 mi WNW 9.2 mph - N/A   Clear
9:35 PM 42.8 °F 38.6 °F 28.4 °F 57% 29.98 in 10.0 mi WNW 6.9 mph - N/A   Clear
9:54 PM 41.0 °F 36.4 °F 28.4 °F 61% 29.98 in 10.0 mi WNW 6.9 mph - N/A   Clear
10:15 PM 41.0 °F 36.4 °F 28.4 °F 61% 29.99 in 10.0 mi WNW 6.9 mph - N/A   Clear
10:35 PM 41.0 °F 35.8 °F 28.4 °F 61% 29.99 in 10.0 mi WNW 8.1 mph - N/A   Clear
10:54 PM 41.0 °F 36.4 °F 28.4 °F 61% 29.99 in 10.0 mi WNW 6.9 mph - N/A   Clear
11:15 PM 41.0 °F 35.8 °F 28.4 °F 61% 29.99 in 10.0 mi NW 8.1 mph - N/A   Clear
11:35 PM 41.0 °F 36.4 °F 28.4 °F 61% 29.99 in 10.0 mi NW 6.9 mph - N/A   Clear
11:54 PM 37.4 °F 32.1 °F 28.4 °F 70% 29.99 in 10.0 mi NW 6.9 mph - N/A   Clear